Location: ??
(35.5672°N, 139.6509°E)
Time: 10:03:53
(UTC+00:00)

Cosmos 1782 - Pass Details

Date: 03 August 2024
Orbit: 503 x 512 km, 82.5° (Epoch: 12 September)

Event Time Altitude Azimuth Distance (km) Brightness Sun altitude
Rises 11:50:56 0° 359° (N) 2,608 6.9 -22.6°
Reaches altitude 10° 11:53:07 10° 5° (N) 1,720 5.8 -22.9°
Enters shadow 11:55:38 35° 32° (NNE) 829 3.8 -23.3°
